Location: Marcé
(47.5801°N, 0.3280°W)
Time: 01:06:17
(UTC+01:00)

Tiros 1 - Pass Details

Date: 02 December 2021
Orbit: 629 x 664 km, 48.4° (Epoch: 26 January)

Event Time Altitude Azimuth Distance (km) Brightness Sun altitude
Rises 20:35:41 0° 234° (SW) 2,919 11.2 -33.6°
Reaches altitude 10° 20:38:02 10° 229° (SW) 2,017 10.1 -34.0°
Enters shadow 20:38:53 15° 226° (SW) 1,701 9.7 -34.1°
